timestamp,surface_pressure_avg,surface_temp_avg,battery_voltage,lat,long
2018-10-19 00:00:00+00:00,269.6214,10.2,13.05,47.84626,-54.09684
2018-10-19 00:10:00+00:00,272.0164,10.27,12.97,47.84626,-54.09684
2018-10-19 00:20:00+00:00,268.9164,10.2,13.05,47.84626,-54.09684
2018-10-19 00:30:00+00:00,264.8764,10.1,13.05,47.84626,-54.09684
2018-10-19 00:40:00+00:00,266.9081,10.1,13.05,47.84626,-54.09684
2018-10-19 00:50:00+00:00,264.4181,10.1,13.05,47.84626,-54.09684
2018-10-19 01:00:00+00:00,260.3197,9.9,13.05,47.84626,-54.09684
2018-10-19 01:10:00+00:00,257.0497,9.64,12.97,47.84626,-54.09684
2018-10-19 01:20:00+00:00,254.8247,9.69,13.05,47.84626,-54.09684
2018-10-19 01:30:00+00:00,252.8997,9.7,13.05,47.84626,-54.09684
2018-10-19 01:40:00+00:00,253.1348,9.8,13.05,47.84626,-54.09684
2018-10-19 01:50:00+00:00,249.8547,9.8,13.05,47.84626,-54.09684
2018-10-19 02:00:00+00:00,245.1764,9.8,13.05,47.84626,-54.09684
2018-10-19 02:10:00+00:00,248.5297,9.8,12.97,47.84626,-54.09684
2018-10-19 02:20:00+00:00,250.5114,9.8,13.05,47.84626,-54.09684
2018-10-19 02:30:00+00:00,244.3548,9.8,13.05,47.84626,-54.09684
2018-10-19 02:40:00+00:00,239.6465,9.79,13.05,47.84626,-54.09684
2018-10-19 02:50:00+00:00,244.4147,9.78,13.05,47.84626,-54.09684
2018-10-19 03:00:00+00:00,247.9064,9.8,12.97,47.84626,-54.09684
2018-10-19 03:10:00+00:00,248.5864,9.8,12.97,47.84626,-54.09684
2018-10-19 03:20:00+00:00,245.0564,9.8,12.97,47.84626,-54.09684
2018-10-19 03:30:00+00:00,243.3197,9.8,13.05,47.84626,-54.09684
2018-10-19 03:40:00+00:00,246.2314,9.9,13.05,47.84626,-54.09684
2018-10-19 03:50:00+00:00,250.4181,9.86,13.05,47.84626,-54.09684
2018-10-19 04:00:00+00:00,255.3947,9.87,12.97,47.84626,-54.09684
2018-10-19 04:10:00+00:00,263.783,9.89,12.89,47.84626,-54.09684
2018-10-19 04:20:00+00:00,269.6898,9.9,12.97,47.84626,-54.09684
2018-10-19 04:30:00+00:00,275.5347,9.9,12.97,47.84626,-54.09684
2018-10-19 04:40:00+00:00,279.0314,9.9,13.05,47.84626,-54.09684
2018-10-19 04:50:00+00:00,282.9431,9.9,13.05,47.84626,-54.09684
2018-10-19 05:00:00+00:00,286.5364,9.9,12.97,47.84626,-54.09684
2018-10-19 05:10:00+00:00,292.698,9.9,12.89,47.84626,-54.09684
2018-10-19 05:20:00+00:00,295.9214,9.92,12.97,47.84626,-54.09684
2018-10-19 05:30:00+00:00,298.933,10.0,12.97,47.84626,-54.09684
2018-10-19 05:40:00+00:00,304.7263,10.0,13.05,47.84626,-54.09684
2018-10-19 05:50:00+00:00,307.3279,10.0,13.05,47.84626,-54.09684
2018-10-19 06:00:00+00:00,309.638,9.96,12.97,47.84626,-54.09684
2018-10-19 06:10:00+00:00,318.0797,9.96,12.89,47.84626,-54.09684
2018-10-19 06:20:00+00:00,324.7814,10.0,12.97,47.84626,-54.09684
2018-10-19 06:30:00+00:00,320.9613,10.0,12.97,47.84626,-54.09684
2018-10-19 06:40:00+00:00,315.7813,10.0,12.97,47.84626,-54.09684
2018-10-19 06:50:00+00:00,317.5097,10.0,12.97,47.84626,-54.09684
2018-10-19 07:00:00+00:00,318.2963,10.0,12.97,47.84626,-54.09684
2018-10-19 07:10:00+00:00,312.9464,10.0,12.89,47.84626,-54.09684
2018-10-19 07:20:00+00:00,307.378,9.98,12.97,47.84626,-54.09684
2018-10-19 07:30:00+00:00,309.8696,10.1,12.97,47.84626,-54.09684
2018-10-19 07:40:00+00:00,311.0246,10.19,12.97,47.84626,-54.09684
2018-10-19 07:50:00+00:00,305.4446,10.1,12.97,47.84626,-54.09684
2018-10-19 08:00:00+00:00,302.5997,10.16,12.89,47.84626,-54.09684
2018-10-19 08:10:00+00:00,305.8047,10.2,12.81,47.84626,-54.09684
2018-10-19 08:20:00+00:00,304.628,10.2,12.89,47.84626,-54.09684
2018-10-19 08:30:00+00:00,300.3413,10.1,12.97,47.84626,-54.09684
2018-10-19 08:40:00+00:00,301.998,10.17,12.97,47.84626,-54.09684
2018-10-19 08:50:00+00:00,304.3297,10.23,12.97,47.84626,-54.09684
2018-10-19 09:00:00+00:00,294.6147,10.1,12.89,47.84626,-54.09684
2018-10-19 09:10:00+00:00,289.523,10.15,12.81,47.84626,-54.09684
2018-10-19 09:20:00+00:00,292.2297,10.2,12.89,47.84626,-54.09684
2018-10-19 09:30:00+00:00,291.523,10.2,12.89,47.84626,-54.09684
2018-10-19 09:40:00+00:00,281.0514,10.25,12.97,47.84626,-54.09684
2018-10-19 09:50:00+00:00,276.9014,10.05,12.97,47.84626,-54.09684
2018-10-19 10:00:00+00:00,278.1898,9.97,12.89,47.84626,-54.09684
2018-10-19 10:10:00+00:00,275.3331,9.8,12.81,47.84626,-54.09684
2018-10-19 10:20:00+00:00,270.9114,9.9,12.89,47.84626,-54.09684
2018-10-19 10:30:00+00:00,266.8248,10.03,12.89,47.84626,-54.09684
2018-10-19 10:40:00+00:00,260.458,10.1,12.97,47.84626,-54.09684
2018-10-19 10:50:00+00:00,254.1514,10.1,12.97,47.84626,-54.09684
2018-10-19 11:00:00+00:00,254.5464,10.1,12.89,47.84626,-54.09684
2018-10-19 11:10:00+00:00,252.4781,10.1,12.81,47.84626,-54.09684
2018-10-19 11:20:00+00:00,245.9781,10.1,12.97,47.84626,-54.09684
2018-10-19 11:30:00+00:00,241.2181,10.0,13.05,47.84626,-54.09684
2018-10-19 11:40:00+00:00,242.0414,9.9,13.13,47.84626,-54.09684
2018-10-19 11:50:00+00:00,239.8914,9.7,13.29,47.84626,-54.09684
2018-10-19 12:00:00+00:00,236.5131,9.6,13.29,47.84626,-54.09684
2018-10-19 12:10:00+00:00,235.5831,9.6,13.29,47.84626,-54.09684
2018-10-19 12:20:00+00:00,235.3481,9.6,13.6,47.84626,-54.09684
2018-10-19 12:30:00+00:00,233.5148,9.59,13.76,47.84626,-54.09684
2018-10-19 12:40:00+00:00,234.3914,9.59,13.84,47.84626,-54.09684
2018-10-19 12:50:00+00:00,238.0147,9.6,13.84,47.84626,-54.09684
2018-10-19 13:00:00+00:00,235.4147,9.7,13.84,47.84626,-54.09684
2018-10-19 13:10:00+00:00,231.4298,9.8,13.84,47.84626,-54.09684
2018-10-19 13:20:00+00:00,230.9764,9.89,14.08,47.84626,-54.09684
2018-10-19 13:30:00+00:00,228.9965,9.86,14.16,47.84626,-54.09684
2018-10-19 13:40:00+00:00,226.4615,9.87,14.24,47.84626,-54.09684
2018-10-19 13:50:00+00:00,225.1764,9.7,14.4,47.84626,-54.09684
2018-10-19 14:00:00+00:00,227.7031,9.91,14.32,47.84626,-54.09684
2018-10-19 14:10:00+00:00,230.3264,10.0,14.72,47.84626,-54.09684
2018-10-19 14:20:00+00:00,229.4831,9.8,15.91,47.84626,-54.09684
2018-10-19 14:30:00+00:00,229.7564,9.8,14.72,47.84626,-54.09684
2018-10-19 14:40:00+00:00,231.7847,9.8,14.88,47.84626,-54.09684
2018-10-19 14:50:00+00:00,230.8598,9.8,16.55,47.84626,-54.09684
2018-10-19 15:00:00+00:00,230.1914,9.78,14.88,47.84626,-54.09684
2018-10-19 15:10:00+00:00,235.7031,9.74,14.64,47.84626,-54.09684
2018-10-19 15:20:00+00:00,239.6248,9.73,14.64,47.84626,-54.09684
2018-10-19 15:30:00+00:00,242.1181,9.74,14.56,47.84626,-54.09684
2018-10-19 15:40:00+00:00,247.0697,9.7,15.99,47.84626,-54.09684
2018-10-19 15:50:00+00:00,252.4297,9.7,16.23,47.84626,-54.09684
2018-10-19 16:00:00+00:00,260.4247,9.72,14.88,47.84626,-54.09684
2018-10-19 16:10:00+00:00,263.9364,9.79,14.48,47.84626,-54.09684
2018-10-19 16:20:00+00:00,267.1731,9.79,14.48,47.84626,-54.09684
2018-10-19 16:30:00+00:00,273.2347,9.8,14.64,47.84626,-54.09684
2018-10-19 16:40:00+00:00,282.873,9.79,14.72,47.84626,-54.09684
2018-10-19 16:50:00+00:00,287.0147,9.8,14.8,47.84626,-54.09684
2018-10-19 17:00:00+00:00,288.373,9.8,14.64,47.84626,-54.09684
2018-10-19 17:10:00+00:00,296.4097,9.8,14.48,47.84626,-54.09684
2018-10-19 17:20:00+00:00,304.0613,9.8,14.48,47.84626,-54.09684
2018-10-19 17:30:00+00:00,306.778,9.8,14.48,47.84626,-54.09684
2018-10-19 17:40:00+00:00,309.0347,9.8,14.48,47.84626,-54.09684
2018-10-19 17:50:00+00:00,316.6597,9.94,14.4,47.84626,-54.09684
2018-10-19 18:00:00+00:00,323.6497,9.93,14.24,47.84626,-54.09684
2018-10-19 18:10:00+00:00,322.2146,10.0,14.16,47.84626,-54.09684
2018-10-19 18:20:00+00:00,322.4696,10.0,14.24,47.84626,-54.09684
2018-10-19 18:30:00+00:00,326.4013,10.0,14.24,47.84626,-54.09684
2018-10-19 18:40:00+00:00,327.333,10.04,14.24,47.84626,-54.09684
2018-10-19 18:50:00+00:00,329.113,10.06,14.24,47.84626,-54.09684
2018-10-19 19:00:00+00:00,335.113,10.1,14.24,47.84626,-54.09684
2018-10-19 19:10:00+00:00,339.0847,10.1,14.08,47.84626,-54.09684
2018-10-19 19:20:00+00:00,337.8329,10.27,14.08,47.84626,-54.09684
2018-10-19 19:30:00+00:00,341.7546,10.36,14.08,47.84626,-54.09684
2018-10-19 19:40:00+00:00,348.8996,10.33,14.16,47.84626,-54.09684
2018-10-19 19:50:00+00:00,348.658,10.13,14.16,47.84626,-54.09684
2018-10-19 20:00:00+00:00,347.2996,10.21,14.0,47.84626,-54.09684
2018-10-19 20:10:00+00:00,350.7429,10.23,13.84,47.84626,-54.09684
2018-10-19 20:20:00+00:00,354.8896,10.3,13.84,47.84626,-54.09684
2018-10-19 20:30:00+00:00,353.6595,10.3,13.76,47.84626,-54.09684
2018-10-19 20:40:00+00:00,349.5696,10.28,13.68,47.84626,-54.09684
2018-10-19 20:50:00+00:00,352.4913,10.15,13.68,47.84626,-54.09684
2018-10-19 21:00:00+00:00,352.8696,9.81,13.6,47.84626,-54.09684
2018-10-19 21:10:00+00:00,350.4529,9.73,13.37,47.84626,-54.09684
2018-10-19 21:20:00+00:00,348.5345,9.87,13.37,47.84626,-54.09684
2018-10-19 21:30:00+00:00,345.613,10.1,13.37,47.84626,-54.09684
2018-10-19 21:40:00+00:00,342.7129,10.17,13.37,47.84626,-54.09684
2018-10-19 21:50:00+00:00,338.1414,10.5,13.29,47.84626,-54.09684
2018-10-19 22:00:00+00:00,338.3947,10.5,13.29,47.84626,-54.09684
2018-10-19 22:10:00+00:00,336.7913,10.4,13.13,47.84626,-54.09684
2018-10-19 22:20:00+00:00,331.493,10.42,13.13,47.84626,-54.09684
2018-10-19 22:30:00+00:00,328.1696,10.5,13.13,47.84626,-54.09684
2018-10-19 22:40:00+00:00,324.3863,10.55,13.13,47.84626,-54.09684
2018-10-19 22:50:00+00:00,320.338,10.45,13.13,47.84626,-54.09684
2018-10-19 23:00:00+00:00,313.0164,10.4,13.05,47.84626,-54.09684
2018-10-19 23:10:00+00:00,309.093,10.4,12.97,47.84626,-54.09684
2018-10-19 23:20:00+00:00,303.5114,10.4,13.05,47.84626,-54.09684
2018-10-19 23:30:00+00:00,295.993,10.4,13.05,47.84626,-54.09684
2018-10-19 23:40:00+00:00,292.4931,10.44,13.13,47.84626,-54.09684
2018-10-19 23:50:00+00:00,287.363,10.5,13.13,47.84626,-54.09684
